Terminal Aerodrome Forecast
Issued by NWS Wilmington, OH

Current Version | Previous Version | Graphics & Text | Print | Product List | Glossary On
Versions: 1 2 3 4 5 6 7 8 9 10 11 12 13 14 15 16 17 18 19 20
000
FTUS41 KILN 280300 AAA
TAFILN
TAF AMD
KILN 280353Z 2804/2824 27009KT P6SM -SHSN OVC035
      TEMPO 2804/2808 BKN025
     FM281300 20010KT P6SM SCT025 BKN100=

USA.gov is the U.S. government's official web portal to all federal, state and local government web resources and services.